Temperature
18 16 17 17 18 19 19 19 19 18 17 16 15 15 15 15 15 14 14 14 14 14 14 14 14 15 15 15 15 15 15 15 15 15 16 16 16 16 16 16 16 16 16 16
16 17 18 18 18 19 19 19 18 17 17 16 15 15 15 15 15 14 14 14 14 14 14 14 14 14 14 14 14 14 14 15 15 15 15 15 15 15 15 15 15 15 15 15
19 19 19 19 19 19 19 19 18 17 16 16 16 15 15 15 15 15 14 14 14 13 13 13 13 13 13 14 14 14 14 14 14 15 15 15 15 15 15 15 15 15 14 14
18 18 19 20 20 20 19 19 19 18 16 15 16 15 15 15 14 14 14 14 14 13 13 13 13 13 13 13 13 13 13 14 14 14 14 14 14 14 14 14 14 14 14 14
19 19 20 20 20 20 19 18 18 17 15 15 15 15 15 15 15 14 14 14 13 13 13 13 13 13 13 12 13 13 13 13 13 13 14 13 13 13 13 13 13 13 13 13
19 19 20 20 20 19 18 17 16 14 14 15 15 15 15 14 15 14 14 13 13 13 13 13 12 12 12 12 12 12 13 13 12 12 13 13 13 13 12 12 12 12 12 13
19 20 20 20 20 19 18 17 16 16 15 15 15 15 15 15 15 15 14 13 13 13 12 12 12 12 12 12 12 12 12 12 12 12 12 12 12 12 12 12 12 12 12 12
18 18 19 20 20 19 18 17 16 16 16 14 15 15 15 14 14 15 14 13 12 12 12 12 12 12 11 11 11 11 11 11 11 11 11 11 10 10 10 10 11 11 11 11
18 18 19 19 19 18 18 15 15 14 14 14 14 15 14 13 13 13 12 12 11 12 12 12 11 11 11 11 11 10 11 11 10 10 10 10 10 10 10 10 10 10 10 10
18 19 19 19 19 17 17 14 13 14 15 15 15 15 14 14 13 12 12 11 11 11 11 11 11 11 10 10 10 10 10 10 10 9 9 9 9 9 9 9 9 9 9 9
18 17 18 18 17 17 17 16 13 12 14 14 15 15 15 14 13 12 11 11 11 11 11 11 10 10 10 10 10 10 9 9 9 9 9 9 8 8 8 8 9 9 9 9
16 15 16 17 17 17 17 16 14 15 14 13 14 14 14 13 13 12 11 11 11 11 10 10 10 10 9 9 9 9 9 9 8 8 8 8 8 8 8 8 8 8 8 8
15 15 15 16 16 16 16 16 14 13 12 12 13 14 13 12 12 12 11 11 10 10 10 10 9 9 9 9 9 9 9 8 8 8 8 8 8 8 7 7 8 8 8 8
15 14 14 15 15 15 16 16 15 14 13 13 14 14 13 12 11 11 10 10 10 10 10 9 9 9 9 9 9 8 8 8 8 8 7 7 7 7 7 7 7 7 7 7
14 14 15 15 16 16 15 15 15 14 14 14 14 14 13 12 11 11 10 10 9 9 9 9 9 9 8 8 8 8 8 8 8 7 7 7 7 7 7 7 7 7 7 7
12 14 15 15 16 15 15 14 14 14 14 14 14 13 12 11 11 10 10 9 9 9 9 9 9 9 8 8 8 8 8 7 7 7 7 7 7 7 7 7 6 7 7 7
12 13 13 14 15 15 14 14 14 14 13 13 13 12 11 11 10 10 10 10 9 9 9 9 9 9 8 8 8 8 7 7 7 7 7 7 7 6 6 6 6 6 6 6
12 11 11 12 14 14 14 14 13 13 13 12 12 11 11 11 10 10 10 10 9 9 9 9 9 8 8 8 7 7 7 7 7 7 7 6 6 6 6 6 6 6 6 6
11 12 11 11 13 14 14 14 13 13 12 12 11 11 10 10 10 9 10 10 10 9 9 9 8 8 8 7 7 7 7 7 7 6 6 6 6 6 6 6 6 6 6 6
11 11 11 12 13 13 13 14 13 13 12 12 11 10 10 10 9 9 9 9 9 9 9 8 8 8 8 7 7 7 7 6 6 6 6 6 6 6 6 6 6 6 6 6
11 11 11 11 12 12 13 13 13 13 12 11 11 11 10 10 9 10 9 9 9 9 8 8 8 8 7 7 7 7 7 6 6 6 6 6 6 6 6 6 6 6 6 6
11 11 11 10 12 12 12 12 12 11 11 11 11 11 10 10 10 9 9 9 9 8 8 8 7 7 7 7 7 7 6 6 6 6 6 6 6 6 6 6 6 6 6 6
10 10 9 10 11 11 12 12 12 12 12 12 11 11 11 10 9 9 9 8 8 8 7 7 7 7 7 7 7 7 6 6 6 6 6 6 6 6 6 6 6 6 6 6
11 10 10 10 11 11 12 12 12 13 12 12 11 11 11 10 9 9 8 8 8 8 7 7 7 7 7 7 7 6 6 6 6 6 6 6 6 6 6 6 6 6 6 6
11 10 10 10 11 12 12 12 12 12 12 11 11 11 10 10 9 9 8 8 8 7 7 7 7 7 7 7 6 6 6 6 6 6 6 6 6 6 6 6 6 6 6 6
10 10 10 10 11 11 12 12 12 12 11 11 11 10 10 10 9 9 8 8 8 7 7 7 7 7 7 6 6 6 6 6 6 6 6 6 6 6 6 6 6 6 6 6
Wind_Speed
3 4 2 5 6 5 4 4 2 1 2 5 7 8 8 8 7 8 7 6 5 4 4 6 6 7 7 7 7 7 7 7 5 3 2 2 2 2 3 4 5 6 5 4
5 2 6 4 5 4 3 3 3 3 4 5 8 6 4 5 6 8 9 8 7 6 5 5 6 6 7 7 7 7 7 7 6 3 2 1 1 2 3 4 6 7 7 6
3 5 3 4 3 4 3 5 6 6 6 7 7 3 2 2 3 5 7 7 7 7 6 5 5 6 6 7 7 6 7 7 7 6 3 2 3 3 3 4 4 7 7 6
3 4 1 2 3 5 2 3 7 8 6 2 3 4 4 5 5 7 8 8 8 7 7 5 5 5 6 6 6 6 7 8 8 7 6 5 4 3 3 3 3 5 8 7
3 1 1 2 2 5 3 4 6 6 6 4 3 4 4 4 7 9 9 9 9 8 8 6 5 5 5 5 5 6 7 8 8 8 8 6 6 4 3 4 5 5 6 8
3 2 1 2 1 4 6 7 8 6 5 2 1 3 5 6 8 7 9 10 10 10 9 7 6 6 6 5 6 6 8 9 8 9 8 8 8 6 6 6 5 5 4 5
6 5 4 1 4 5 6 6 4 4 4 3 1 2 6 5 4 7 10 11 11 10 9 8 7 6 5 5 6 6 8 8 8 8 9 8 7 7 6 5 5 5 5 5
3 4 5 3 2 3 2 7 7 5 5 3 1 3 5 1 1 4 8 11 12 11 9 8 7 6 5 5 5 5 6 6 7 8 7 7 6 5 4 5 4 5 4 4
4 3 4 3 2 5 5 3 4 7 3 1 3 4 3 2 4 7 10 11 12 11 9 8 7 5 5 4 4 4 5 6 6 6 6 6 6 6 5 5 5 4 4 4
5 2 3 3 5 6 5 7 5 5 5 2 3 3 4 4 5 8 10 11 10 10 9 8 6 5 4 4 4 5 5 5 5 5 5 5 5 5 5 5 6 6 6 6
3 3 3 4 4 1 3 4 6 5 5 5 3 5 3 7 9 11 11 11 12 12 10 8 6 5 4 4 4 4 4 4 5 5 5 6 6 6 6 6 6 6 6 6
3 4 1 3 3 1 3 4 5 4 2 3 4 5 4 2 6 8 10 9 10 10 9 8 7 6 5 4 4 4 4 4 4 4 5 5 5 6 6 6 6 6 6 6
4 5 3 4 5 5 4 2 3 5 4 4 3 4 3 5 6 7 9 10 10 10 10 8 7 6 5 3 3 4 4 4 4 4 5 5 6 6 6 6 6 6 6 6
5 4 5 5 5 2 2 2 2 4 3 3 4 3 0 3 5 6 7 9 10 10 10 9 7 5 4 3 3 3 3 3 3 4 5 5 5 5 5 5 6 6 6 6
5 4 3 1 1 2 3 3 2 2 3 4 3 2 2 4 5 7 8 10 10 10 10 9 7 5 4 4 3 3 2 2 3 4 4 4 4 4 5 5 6 6 7 7
4 4 3 3 3 6 6 7 5 3 2 1 1 2 1 3 5 6 9 11 11 11 11 9 8 7 5 5 4 3 2 2 3 4 4 4 4 5 5 5 6 7 7 7
3 4 3 0 2 3 4 5 4 3 3 1 0 1 2 4 6 7 8 9 9 10 10 10 8 7 5 4 4 3 3 2 3 4 3 4 4 5 5 5 6 7 6 7
4 4 3 2 3 2 1 1 2 3 4 4 2 2 3 4 3 4 5 7 7 8 8 8 6 5 4 4 4 3 3 3 3 3 3 3 4 4 5 6 6 6 5 6
3 5 4 3 3 1 1 2 1 0 2 3 3 4 5 6 5 4 3 5 6 6 6 6 5 5 5 5 5 5 4 3 4 3 3 3 3 4 4 5 5 5 5 6
6 5 5 4 3 1 2 5 3 2 1 1 2 4 4 3 2 1 3 5 6 6 6 6 5 5 5 5 6 6 4 3 3 2 2 3 3 4 4 4 4 3 4 5
5 5 4 3 2 1 4 6 1 1 3 2 2 3 3 2 2 4 5 5 6 7 7 7 6 5 5 5 6 5 4 2 2 3 4 4 4 3 3 3 3 4 4 5
2 3 2 3 2 1 5 4 2 2 1 1 2 3 4 4 6 6 6 7 8 7 6 6 6 5 4 5 6 5 3 2 3 4 5 4 4 4 4 4 4 4 4 6
2 2 3 3 3 3 3 1 2 2 2 1 3 4 7 6 6 6 6 7 7 7 6 5 6 5 4 4 5 5 3 4 5 5 5 4 5 5 4 4 3 3 4 4
2 2 3 2 1 2 3 2 2 1 2 2 4 6 6 7 7 7 7 6 6 5 5 5 6 5 4 3 4 4 4 5 6 6 4 4 4 4 4 4 3 3 2 3
1 2 3 2 1 2 4 2 2 4 5 6 5 4 6 8 7 7 6 6 5 4 4 5 5 5 4 3 3 4 5 6 6 5 4 4 4 3 4 4 3 2 1 0
1 3 3 3 4 3 2 1 2 4 4 5 6 5 5 6 7 7 6 5 5 5 5 5 5 4 4 4 4 4 5 6 6 5 3 3 3 2 3 3 4 7 5 5
Wind_Direction
83 82 187 210 186 168 152 140 136 157 151 113 125 137 158 154 151 155 158 157 152 131 98 79 68 61 56 46 41 37 35 20 18 21 12 15 24 27 39 41 35 32 26 19
48 275 231 191 165 154 157 135 129 69 77 113 119 119 144 161 170 173 173 171 163 143 117 90 74 64 57 48 39 37 33 26 21 17 8 12 60 57 51 39 34 29 26 18
189 243 198 162 164 166 193 174 163 138 85 79 111 96 164 174 162 165 172 170 161 155 140 116 83 66 62 53 42 41 32 31 25 17 26 38 55 54 39 28 22 19 17 18
243 267 190 174 202 164 229 198 149 139 121 125 138 161 222 198 193 188 180 169 158 147 135 124 101 81 68 60 48 42 41 39 30 27 39 47 48 48 33 26 19 15 19 16
288 276 121 158 228 163 159 101 108 115 113 90 42 131 247 180 209 207 186 172 157 148 140 130 110 94 75 61 55 47 46 42 35 36 40 50 53 47 36 31 27 17 17 18
276 289 195 199 74 117 121 81 66 57 74 87 235 155 239 210 211 193 178 167 156 148 139 126 110 91 69 52 49 47 49 40 33 37 42 48 49 45 41 29 18 8 5 8
359 354 348 48 76 46 82 93 55 21 22 241 238 185 244 236 205 191 174 165 157 149 142 135 121 99 80 58 47 46 51 42 33 36 39 43 45 45 42 27 15 10 1 355
58 333 328 355 118 146 124 131 152 178 199 250 323 234 260 325 101 159 156 152 150 147 145 139 129 116 99 78 61 55 55 49 39 38 35 36 39 41 34 24 14 6 355 342
154 266 317 358 51 117 117 107 144 126 120 109 274 280 309 92 104 128 143 150 154 152 148 140 129 117 107 93 72 63 62 53 44 42 40 35 33 36 29 19 15 5 355 352
146 180 313 315 56 39 106 135 98 111 138 206 285 265 241 210 178 159 159 159 154 148 146 137 128 119 107 96 76 63 64 60 49 44 40 40 32 30 26 25 19 11 3 6
108 129 339 29 51 25 70 79 94 103 141 152 222 264 241 210 188 174 171 163 158 154 152 142 135 128 115 95 83 74 63 59 49 42 41 39 31 27 30 28 16 9 9 11
102 109 47 325 310 280 107 124 138 139 185 165 175 260 336 181 162 158 158 152 148 148 146 142 140 131 119 105 93 83 67 59 50 45 45 41 35 32 31 23 13 10 12 12
117 102 71 360 351 8 47 57 113 117 116 149 172 262 32 87 116 136 144 145 145 144 143 143 141 137 131 115 95 83 69 57 47 49 49 42 36 34 28 19 13 13 14 15
106 98 146 182 214 222 10 19 127 121 140 189 218 233 124 120 143 146 146 145 145 148 148 147 146 143 136 124 114 96 78 64 59 57 54 44 34 32 27 21 19 16 17 22
79 103 121 137 159 117 72 29 61 122 173 183 233 205 212 188 175 159 149 144 146 151 152 154 154 150 143 136 125 110 88 65 66 69 59 44 35 37 36 32 25 23 25 26
57 111 96 57 74 88 63 30 37 44 45 60 69 14 23 115 123 140 153 157 160 161 159 156 156 157 162 157 144 123 99 79 80 77 64 53 48 45 41 34 30 30 28 26
57 106 100 108 309 74 36 1 20 39 19 40 58 268 120 127 145 157 162 162 164 165 160 160 162 166 167 158 145 134 123 108 93 83 72 60 59 53 41 39 37 31 27 32
109 93 103 88 74 99 245 33 63 78 39 29 68 101 118 123 106 105 133 147 151 154 155 159 158 152 142 131 124 119 115 112 101 86 77 68 66 59 47 43 36 27 27 34
102 118 100 97 93 80 358 13 360 73 23 21 92 104 96 102 77 58 92 130 144 147 149 149 146 141 137 132 131 120 109 106 97 85 77 74 78 72 58 46 33 25 34 39
52 73 96 97 103 169 285 317 317 133 8 352 129 141 139 113 109 192 139 122 123 122 129 131 128 123 129 132 128 121 114 106 103 97 86 78 79 79 68 54 41 32 45 47
33 38 68 95 110 313 312 313 12 94 275 285 159 159 148 138 172 148 128 116 119 120 122 125 123 123 133 136 130 125 120 116 106 102 92 79 73 72 73 59 47 52 56 54
104 93 82 100 95 278 329 11 78 224 270 109 134 132 122 119 116 120 118 117 119 115 114 118 119 116 120 136 133 129 129 118 100 94 87 76 67 66 74 70 57 52 57 60
94 169 165 158 191 258 305 310 294 179 145 140 138 135 131 126 126 122 119 118 118 119 117 116 123 118 110 124 135 138 137 119 106 95 86 75 65 59 63 73 70 57 53 61
15 101 107 81 15 337 352 3 13 71 126 129 136 140 136 134 132 125 124 121 119 120 121 121 121 121 114 111 122 136 135 124 113 103 92 82 74 62 55 56 59 69 65 67
316 84 83 62 304 30 9 13 73 75 89 101 106 122 138 134 132 132 131 129 130 128 125 129 132 132 129 121 117 127 132 125 115 108 100 87 77 76 68 58 44 50 36 40
279 159 147 204 221 179 232 241 116 111 116 124 115 104 116 133 133 131 134 135 135 135 130 130 132 132 128 124 122 124 131 131 126 118 111 102 96 84 84 82 58 46 49 53
Height
1494 1499 1503 1501 1500 1500 1503 1507 1511 1512 1510 1514 1519 1522 1524 1526 1528 1530 1531 1533 1534 1535 1536 1536 1537 1537 1538 1537 1537 1538 1538 1539 1540 1540 1541 1542 1543 1543 1544 1545 1545 1546 1547 1548
1499 1501 1495 1494 1496 1499 1502 1507 1511 1513 1511 1515 1522 1525 1525 1526 1527 1528 1530 1531 1533 1534 1535 1536 1537 1537 1538 1537 1537 1538 1538 1538 1539 1539 1540 1541 1541 1542 1542 1543 1543 1544 1544 1545
1497 1495 1491 1493 1495 1499 1501 1505 1508 1513 1515 1517 1522 1529 1528 1527 1528 1528 1530 1531 1533 1534 1535 1537 1538 1538 1538 1538 1537 1537 1537 1537 1538 1538 1539 1539 1540 1540 1541 1541 1541 1542 1542 1542
1494 1490 1490 1492 1494 1495 1502 1497 1500 1507 1518 1528 1524 1537 1530 1527 1527 1527 1528 1530 1532 1534 1536 1537 1538 1539 1539 1539 1538 1538 1537 1537 1538 1538 1538 1539 1539 1539 1539 1540 1540 1540 1540 1540
1493 1489 1490 1492 1491 1492 1497 1496 1500 1507 1517 1527 1528 1534 1532 1526 1526 1524 1526 1528 1531 1533 1535 1537 1538 1539 1539 1539 1539 1538 1538 1537 1538 1538 1538 1538 1538 1539 1539 1539 1539 1539 1539 1538
1491 1488 1488 1488 1488 1489 1494 1500 1508 1516 1522 1535 1531 1534 1532 1525 1519 1520 1523 1526 1529 1532 1534 1537 1539 1539 1539 1540 1539 1539 1538 1538 1538 1538 1538 1538 1538 1538 1538 1537 1537 1537 1536 1536
1495 1491 1488 1487 1490 1492 1496 1510 1527 1530 1539 1537 1529 1531 1528 1516 1515 1516 1519 1523 1527 1530 1533 1536 1538 1539 1540 1540 1540 1540 1539 1539 1539 1539 1538 1538 1538 1538 1537 1537 1536 1536 1535 1534
1504 1505 1492 1489 1491 1495 1500 1507 1527 1536 1539 1538 1530 1531 1522 1515 1514 1514 1517 1521 1526 1529 1532 1535 1537 1539 1540 1541 1541 1541 1540 1540 1540 1539 1539 1539 1538 1538 1537 1537 1536 1535 1534 1533
1505 1504 1491 1489 1489 1492 1501 1509 1511 1526 1532 1538 1534 1526 1518 1515 1515 1516 1518 1521 1524 1528 1532 1535 1537 1539 1540 1541 1542 1542 1541 1541 1540 1540 1540 1540 1539 1538 1537 1536 1535 1534 1533 1532
1495 1502 1495 1491 1490 1495 1498 1506 1516 1525 1535 1538 1531 1528 1524 1516 1516 1516 1518 1521 1524 1528 1532 1534 1537 1539 1541 1542 1542 1542 1542 1542 1542 1541 1541 1540 1539 1539 1538 1537 1536 1534 1533 1532
1493 1502 1501 1497 1500 1502 1502 1507 1516 1525 1526 1536 1538 1531 1512 1511 1512 1514 1517 1520 1523 1527 1531 1534 1537 1539 1541 1542 1542 1543 1543 1543 1543 1542 1541 1541 1540 1539 1538 1537 1536 1535 1534 1532
1496 1505 1510 1505 1499 1497 1499 1504 1512 1521 1526 1529 1533 1529 1510 1509 1511 1514 1517 1521 1524 1528 1531 1534 1537 1539 1541 1542 1543 1543 1544 1544 1543 1543 1542 1542 1541 1540 1539 1538 1537 1536 1534 1533
1496 1506 1517 1515 1512 1504 1504 1505 1508 1515 1524 1530 1532 1525 1513 1512 1513 1516 1519 1522 1525 1528 1531 1534 1537 1539 1541 1542 1543 1544 1544 1544 1544 1544 1543 1542 1542 1541 1540 1539 1538 1537 1535 1534
1494 1506 1514 1519 1515 1509 1508 1507 1508 1513 1523 1525 1521 1517 1515 1515 1516 1518 1520 1523 1526 1529 1531 1534 1537 1540 1541 1543 1544 1544 1545 1545 1545 1544 1544 1543 1542 1542 1541 1540 1539 1538 1537 1535
1495 1507 1507 1507 1505 1506 1508 1509 1508 1511 1513 1517 1515 1514 1513 1514 1515 1518 1521 1523 1527 1529 1532 1535 1538 1540 1542 1543 1544 1545 1545 1545 1545 1545 1545 1544 1543 1543 1542 1542 1541 1540 1539 1537
1500 1507 1508 1510 1507 1507 1511 1511 1510 1511 1511 1513 1513 1515 1513 1514 1516 1518 1520 1523 1526 1529 1531 1534 1537 1540 1541 1543 1544 1545 1546 1546 1546 1546 1546 1545 1544 1544 1544 1543 1542 1541 1540 1539
1506 1508 1514 1517 1511 1510 1519 1517 1515 1514 1514 1514 1516 1517 1515 1516 1517 1518 1520 1523 1526 1528 1530 1533 1536 1539 1541 1543 1544 1545 1546 1547 1547 1547 1547 1546 1546 1546 1545 1545 1544 1544 1543 1542
1507 1512 1519 1520 1516 1525 1523 1515 1515 1516 1516 1515 1515 1516 1516 1517 1519 1520 1522 1524 1526 1528 1531 1534 1536 1539 1541 1543 1545 1546 1547 1548 1548 1548 1548 1548 1548 1547 1547 1547 1546 1546 1545 1544
1505 1510 1519 1525 1524 1523 1519 1516 1516 1518 1519 1517 1517 1518 1519 1519 1521 1523 1524 1525 1527 1530 1532 1535 1537 1539 1541 1543 1545 1547 1548 1549 1549 1549 1549 1549 1549 1549 1549 1549 1548 1548 1547 1547
1508 1510 1518 1523 1524 1527 1523 1516 1514 1517 1521 1519 1518 1519 1519 1520 1524 1526 1525 1527 1529 1531 1533 1535 1537 1540 1542 1544 1545 1547 1548 1549 1550 1550 1551 1551 1551 1551 1551 1551 1551 1550 1550 1549
1516 1519 1522 1525 1526 1525 1520 1516 1516 1524 1524 1519 1518 1518 1519 1521 1523 1524 1526 1528 1530 1532 1534 1537 1539 1541 1543 1544 1546 1548 1549 1550 1551 1552 1552 1552 1553 1553 1553 1553 1553 1553 1552 1552
1522 1524 1526 1528 1529 1530 1520 1517 1520 1522 1518 1518 1518 1519 1520 1521 1522 1525 1527 1529 1531 1533 1536 1538 1540 1542 1544 1546 1547 1548 1550 1551 1552 1553 1554 1554 1555 1555 1555 1555 1555 1555 1555 1555
1522 1523 1525 1527 1529 1523 1520 1520 1519 1519 1519 1519 1519 1520 1521 1522 1524 1526 1528 1531 1533 1535 1537 1539 1541 1543 1545 1547 1548 1550 1551 1552 1553 1554 1555 1556 1556 1557 1557 1557 1557 1557 1557 1557
1521 1521 1523 1524 1523 1522 1521 1520 1520 1519 1520 1520 1520 1521 1522 1523 1525 1527 1530 1532 1534 1536 1538 1540 1542 1544 1546 1548 1549 1551 1552 1554 1555 1556 1557 1557 1558 1559 1559 1559 1559 1559 1559 1559
1521 1521 1523 1524 1523 1522 1522 1521 1521 1521 1521 1521 1521 1522 1523 1525 1527 1529 1531 1534 1536 1538 1540 1542 1544 1545 1547 1549 1550 1552 1553 1555 1556 1557 1558 1559 1560 1561 1561 1561 1562 1562 1562 1562
1521 1522 1523 1525 1522 1523 1523 1522 1522 1522 1522 1522 1523 1524 1525 1527 1528 1530 1533 1535 1537 1539 1541 1543 1545 1547 1548 1550 1551 1553 1554 1556 1557 1558 1560 1560 1561 1563 1563 1564 1564 1564 1564 1564